Total_Precipitation_Accumulation
0.13 0.19 0.24 0.27 0.24 0.20 0.18 0.18 0.28 0.43 0.60 0.75 0.93 1.02 1.08 1.04 1.01 0.94 0.91 0.91 0.90 0.97 1.07 1.17 1.31 1.39 1.55 1.61 1.81 1.93 2.21 2.38 2.41 2.50 2.49 2.51 2.62 2.64 2.56 2.58 2.62 2.80 2.85 2.88
0.11 0.13 0.18 0.21 0.23 0.19 0.16 0.15 0.21 0.38 0.69 0.76 0.89 1.01 1.07 1.02 0.98 0.96 0.92 0.94 1.03 1.08 1.16 1.29 1.32 1.41 1.54 1.65 1.88 2.16 2.43 2.71 2.75 2.80 2.77 2.82 2.94 2.99 2.88 2.88 3.01 3.04 2.90 2.82
0.19 0.19 0.19 0.24 0.24 0.22 0.23 0.22 0.28 0.45 0.66 0.77 0.88 1.00 1.18 1.16 1.05 1.03 1.06 1.09 1.19 1.30 1.31 1.36 1.44 1.54 1.72 1.88 2.12 2.33 2.53 2.79 2.98 3.05 3.06 3.11 3.16 3.17 3.11 3.22 3.41 3.37 3.19 2.97
0.26 0.30 0.37 0.31 0.29 0.29 0.34 0.36 0.41 0.56 0.67 0.91 1.11 1.22 1.48 1.59 1.37 1.23 1.15 1.15 1.25 1.45 1.57 1.58 1.62 1.76 2.03 2.21 2.46 2.69 2.83 2.94 3.05 3.10 3.13 3.18 3.24 3.14 3.19 3.34 3.38 3.37 3.25 3.09
0.35 0.39 0.39 0.42 0.45 0.49 0.57 0.72 0.70 0.83 0.98 1.17 1.30 1.34 1.51 1.40 1.26 1.19 1.21 1.34 1.45 1.60 1.68 1.79 1.87 2.01 2.16 2.35 2.59 2.83 2.98 2.95 2.93 3.03 3.14 3.19 3.21 3.21 3.28 3.34 3.24 3.10 2.99 2.95
0.47 0.53 0.59 0.62 0.63 0.62 0.73 1.32 1.31 1.31 1.30 1.37 1.45 1.74 1.71 1.39 1.24 1.23 1.28 1.36 1.48 1.61 1.61 1.73 1.90 1.93 2.02 2.28 2.57 2.74 2.90 2.95 2.96 3.07 3.15 3.19 3.29 3.36 3.31 3.29 3.21 3.11 2.91 2.90
0.65 0.76 0.77 0.67 0.63 0.70 1.21 1.68 1.52 1.51 1.50 1.49 1.69 1.77 1.65 1.47 1.44 1.38 1.40 1.50 1.53 1.59 1.59 1.59 1.75 1.87 2.03 2.19 2.36 2.56 2.77 2.97 3.19 3.34 3.39 3.41 3.46 3.36 3.29 3.21 3.22 3.17 3.03 2.92
0.88 1.17 1.32 0.89 0.75 1.10 1.50 1.34 1.49 1.65 1.61 1.61 1.64 1.56 1.52 1.50 1.52 1.49 1.49 1.55 1.56 1.59 1.70 1.78 1.92 2.03 2.09 2.04 2.17 2.41 2.51 2.71 2.89 3.09 3.23 3.24 3.29 3.22 3.27 3.20 3.07 2.94 2.83 2.70
1.29 1.46 1.30 1.08 1.11 1.30 1.36 1.44 1.51 1.68 1.78 1.71 1.79 1.74 1.56 1.57 1.53 1.66 1.78 1.80 1.75 1.65 1.73 1.92 2.02 2.13 2.20 2.10 2.05 2.13 2.28 2.48 2.71 2.90 3.17 3.31 3.34 3.28 3.17 3.08 2.88 2.66 2.51 2.36
1.57 1.60 1.47 1.39 1.35 1.36 1.39 1.47 1.53 1.66 1.80 1.88 1.81 1.68 1.64 1.60 1.50 1.46 1.55 1.61 1.75 1.71 1.76 2.12 2.10 2.04 2.08 2.11 2.10 2.16 2.28 2.39 2.56 2.72 2.92 3.19 3.26 3.19 3.02 2.75 2.58 2.51 2.42 2.37
1.82 1.87 1.63 1.56 1.49 1.55 1.55 1.55 1.55 1.61 1.72 1.82 1.72 1.63 1.65 1.73 1.60 1.53 1.57 1.57 1.58 1.66 1.69 1.81 1.91 1.93 1.93 2.00 2.08 2.12 2.17 2.21 2.26 2.47 2.67 2.86 2.88 2.79 2.64 2.49 2.55 2.55 2.48 2.44
2.13 1.91 1.89 1.89 1.72 1.72 1.82 1.84 1.89 1.87 2.00 1.97 1.75 1.71 1.62 1.58 1.52 1.42 1.40 1.56 1.60 1.55 1.55 1.63 1.69 1.82 1.90 2.05 2.19 2.25 2.21 2.17 2.10 2.06 2.18 2.47 2.73 2.79 2.70 2.47 2.47 2.35 2.25 2.19
1.85 1.79 1.90 1.95 1.95 1.98 2.09 2.10 2.12 2.13 2.16 2.06 1.84 1.77 1.65 1.58 1.44 1.36 1.31 1.43 1.68 1.73 1.70 1.80 1.79 1.72 1.78 1.99 2.16 2.31 2.24 2.19 2.07 1.96 1.99 2.17 2.50 2.79 2.88 2.66 2.38 2.21 1.97 1.78
1.71 1.88 2.13 2.18 2.22 2.17 2.15 2.19 2.21 2.32 2.26 2.18 1.99 1.80 1.72 1.73 1.65 1.50 1.45 1.52 1.71 1.89 1.92 1.95 1.96 1.94 1.92 2.01 2.11 2.18 2.18 2.19 2.06 1.94 2.01 2.13 2.35 2.65 2.83 2.78 2.53 2.22 1.90 1.67
1.93 1.95 2.02 1.98 2.09 2.13 2.16 2.21 2.20 2.36 2.41 2.32 2.09 1.95 1.81 1.69 1.66 1.62 1.62 1.72 1.93 2.07 2.05 1.99 1.97 1.94 1.83 1.79 1.92 2.07 2.12 2.14 2.10 2.03 2.04 2.05 2.24 2.53 2.69 2.70 2.55 2.32 2.00 1.71
2.16 2.04 1.87 1.90 2.09 2.14 2.15 2.24 2.18 2.24 2.39 2.31 2.10 2.05 2.07 1.97 1.83 1.70 1.74 1.88 2.17 2.29 2.18 2.08 2.05 1.98 1.82 1.79 1.83 1.88 1.92 1.97 1.87 1.83 1.88 1.85 1.90 2.07 2.34 2.50 2.44 2.35 2.10 1.66
2.16 2.25 2.21 2.24 2.24 2.22 2.24 2.20 2.12 2.17 2.24 2.28 2.23 2.14 2.26 2.22 2.17 2.10 2.03 2.02 2.15 2.18 2.05 1.96 1.95 1.86 1.71 1.71 1.75 1.69 1.66 1.71 1.67 1.52 1.64 1.72 1.78 1.92 2.20 2.41 2.36 2.25 2.06 1.75
1.99 1.99 2.00 2.10 2.23 2.30 2.20 2.05 1.98 1.95 2.00 2.11 2.17 2.17 2.24 2.34 2.44 2.51 2.41 2.22 2.10 1.97 1.84 1.75 1.72 1.66 1.56 1.52 1.46 1.41 1.39 1.41 1.40 1.34 1.44 1.55 1.66 1.89 2.17 2.30 2.21 2.10 1.99 1.80
1.89 1.90 1.87 1.88 2.00 2.05 1.91 1.87 1.79 1.69 1.66 1.75 1.87 1.99 2.10 2.19 2.28 2.47 2.39 2.33 2.27 2.09 1.79 1.60 1.64 1.51 1.45 1.44 1.45 1.35 1.26 1.27 1.29 1.29 1.34 1.46 1.61 1.78 1.94 1.99 1.96 1.94 1.80 1.66
1.93 1.95 1.89 1.94 1.99 1.92 1.78 1.67 1.70 1.64 1.63 1.67 1.65 1.68 1.81 1.91 2.02 2.25 2.30 2.34 2.26 2.01 1.72 1.57 1.41 1.32 1.26 1.23 1.29 1.30 1.35 1.40 1.43 1.47 1.51 1.58 1.66 1.76 1.80 1.77 1.71 1.68 1.65 1.64
1.84 1.83 1.78 1.90 1.91 1.76 1.62 1.51 1.56 1.59 1.60 1.57 1.51 1.53 1.57 1.65 1.77 2.02 2.32 2.47 2.15 1.75 1.51 1.47 1.30 1.16 1.11 1.16 1.18 1.17 1.28 1.41 1.47 1.54 1.59 1.66 1.74 1.76 1.76 1.71 1.60 1.56 1.56 1.58
1.81 1.75 1.71 1.77 1.83 1.72 1.46 1.39 1.39 1.41 1.42 1.35 1.30 1.36 1.43 1.55 1.64 1.78 1.97 2.23 2.14 1.95 1.52 1.29 1.18 1.12 1.09 1.11 1.04 1.08 1.17 1.27 1.40 1.44 1.48 1.59 1.69 1.76 1.71 1.65 1.59 1.54 1.55 1.57
1.97 1.78 1.77 1.79 1.84 1.71 1.48 1.37 1.37 1.46 1.41 1.34 1.32 1.36 1.39 1.52 1.60 1.83 1.96 1.85 1.83 1.90 1.54 1.34 1.39 1.29 1.12 1.01 1.00 1.03 1.09 1.19 1.33 1.44 1.48 1.55 1.59 1.62 1.61 1.56 1.56 1.55 1.55 1.48
2.14 1.93 1.82 1.75 1.75 1.67 1.64 1.48 1.36 1.48 1.43 1.32 1.27 1.26 1.30 1.43 1.45 1.50 1.67 1.80 1.81 1.77 1.45 1.37 1.38 1.24 1.10 1.00 1.08 1.14 1.25 1.34 1.36 1.35 1.33 1.40 1.47 1.46 1.44 1.38 1.36 1.40 1.40 1.36
2.14 2.02 1.87 1.76 1.78 1.69 1.57 1.46 1.42 1.47 1.39 1.33 1.34 1.35 1.32 1.37 1.47 1.51 1.50 1.52 1.70 1.69 1.46 1.41 1.33 1.24 1.12 1.05 1.17 1.32 1.38 1.31 1.27 1.25 1.26 1.30 1.39 1.40 1.34 1.34 1.38 1.33 1.29 1.28
2.12 2.05 1.96 1.79 1.68 1.60 1.52 1.47 1.52 1.54 1.48 1.49 1.51 1.48 1.44 1.43 1.48 1.48 1.48 1.46 1.49 1.59 1.47 1.31 1.18 1.15 1.15 1.17 1.21 1.27 1.25 1.21 1.19 1.20 1.20 1.23 1.29 1.33 1.29 1.31 1.32 1.28 1.30 1.31
2.06 2.02 1.96 1.83 1.72 1.60 1.56 1.61 1.62 1.64 1.60 1.60 1.65 1.61 1.62 1.62 1.64 1.65 1.56 1.50 1.42 1.38 1.29 1.18 1.07 1.01 1.01 1.07 1.07 1.09 1.12 1.14 1.12 1.12 1.15 1.18 1.23 1.25 1.19 1.20 1.22 1.22 1.24 1.23